{"data":{"norad_id":41552,"epoch":"2026-09-20T00:11:17.298240Z","epoch_age_seconds":68188,"freshness":"FRESH","line1":"1 41552U 16031A   26263.00783910 -.00000125  00000+0  00000+0 0  9992","line2":"2 41552   0.0787  33.9248 0000998  77.7759 328.5331  1.00270803 37677","mean_motion":1.00270803,"eccentricity":9.98e-5,"inclination_deg":0.0787,"raan_deg":33.9248,"arg_perigee_deg":77.7759,"mean_anomaly_deg":328.5331,"bstar":0,"rev_number":3767,"period_min":1436.1109684142,"perigee_km":35782.662185961,"apogee_km":35791.078321409,"semimajor_km":42165.007253685,"source":"CELESTRAK","updated_at":"2026-09-20T09:00:35.224701Z"}}